[Iaude] MPEC M73: 2017 CH56 [a=39.45,e=0.14,i=16.0,H=8.26]
    mpec at cfa.harvard.edu 
    mpec at cfa.harvard.edu
       
    Wed Jun 26 23:42:14 EDT 2024
    
    
  
M.P.E.C. 2024-M73                                 Issued 2024 June 27, 03:40 UT
     The Minor Planet Electronic Circulars contain information on unusual
         minor planets, routine data on comets and natural satellites,
         and occasional editorial announcements.  They are published
    on behalf of Division F of the International Astronomical Union by the
          Minor Planet Center, Smithsonian Astrophysical Observatory,
                          Cambridge, MA 02138, U.S.A.
			  
             Prepared using the Tamkin Foundation Computer Network
                              MPC at CFA.HARVARD.EDU
            URL https://www.minorplanetcenter.net/    ISSN 1523-6714
                                   2017 CH56                                    
Additional Observations:
     K17C56H 1C2015 03 22.37648609 18 43.91 +01 02 04.3                WEM073T09
     K17C56H 1C2015 03 22.45354209 18 43.66 +01 02 06.6                WEM073T09
     K17C56H 1C2016 01 12.36977309 28 31.61 +00 20 59.8                WEM073T09
Observer details:
T09 Subaru Telescope, Maunakea.  Observer .  Measurer S. Deen.  8.3-m Subaru
    Telescope + CCD.
First and last observations above in comparison with prediction:
Residuals in seconds of arc (or two decimals in degrees), reference and Delta-T
150322 T09 0.03+ 0.01+    160112 T09 0.01+ 0.00+    MPO824954   +8820 days
Orbital elements:
2017 CH56                                                                       
Epoch 2024 Mar. 31.0 TT = JDT 2460400.5                 Alexandersen            
M 132.57383              (2000.0)            P               Q                  
n   0.00397723     Peri.  168.15740     +0.98463414     -0.14431807             
a  39.4532097      Node   200.92338     +0.12912487     +0.98075431             
e   0.1440566      Incl.   15.98165     +0.11756860     +0.13150389             
P 248              H    8.26          G   0.15           U   6                  
Residuals in seconds of arc
150322 T09  0.0   0.1+    161128 T09  0.0   0.1+    170201 T09  0.1+  0.1+
150322 T09  0.0   0.0     161128 T09  0.2+  0.0     170201 T09  0.0   0.1+
160112 T09  0.0   0.1-    161223 T09  0.0   0.1-    170201 T09  0.0   0.1-
161128 T09  0.2-  0.1+    161223 T09  0.1-  0.2-    170201 T09  0.1-  0.1+
161128 T09  0.1+  0.0     161223 T09  0.2-  0.1-    170201 T09  0.1+  0.2+
Ephemeris:
2017 CH56                a,e,i = 39.45, 0.14, 16                 q = 33.7697
Date    TT    R. A. (2000) Decl.     Delta      r    Elong.  Phase     V
2024 05 28    10 00 32.0 -00 27 06  43.7617 43.6964    85.6     1.3    24.9
...
2024 06 12    10 01 03.3 -00 25 13  44.0081 43.6999    71.7     1.3    24.9
...
2024 06 20    10 01 27.0 -00 25 02  44.1323 43.7018    64.3     1.2    24.9
...
2024 06 26    10 01 47.8 -00 25 16  44.2204 43.7033    58.9     1.1    24.9
2024 06 27    10 01 51.5 -00 25 20  44.2346 43.7035    57.9     1.1    24.9
2024 06 28    10 01 55.2 -00 25 25  44.2487 43.7037    57.0     1.1    24.9
...
2024 07 04    10 02 19.1 -00 26 04  44.3297 43.7051    51.6     1.0    24.9
...
2024 07 12    10 02 54.1 -00 27 26  44.4279 43.7070    44.4     0.9    24.8
...
2024 07 27    10 04 07.8 -00 31 24  44.5764 43.7106    31.2     0.7    24.8
M. P. C. Staff               (C) Copyright 2024 MPC           M.P.E.C. 2024-M73
    
    
More information about the Iaude
mailing list